Time,TemperatureF,DewpointF,PressureIn,WindDirection,WindDirectionDegrees,WindSpeedMPH,WindSpeedGustMPH,Humidity,HourlyPrecipIn,Conditions,Clouds,dailyrainin,SoftwareType,DateUTC
2013-11-27 00:02:00,41.1,40.0,29.77,NNW,327,5.0,12.0,95,0.01,,,0.00,weatherlink.com 1.10,2013-11-27 05:02:00,
2013-11-27 00:17:00,40.7,40.0,29.77,North,355,8.0,15.0,96,0.00,,,0.00,weatherlink.com 1.10,2013-11-27 05:17:00,
2013-11-27 00:33:00,40.4,39.0,29.77,North,360,6.0,16.0,96,0.00,,,0.00,weatherlink.com 1.10,2013-11-27 05:33:00,
2013-11-27 00:48:00,40.0,39.0,29.77,North,355,8.0,16.0,95,0.01,,,0.01,weatherlink.com 1.10,2013-11-27 05:48:00,
2013-11-27 01:03:00,39.8,39.0,29.76,NNW,338,7.0,22.0,95,0.01,,,0.01,weatherlink.com 1.10,2013-11-27 06:03:00,
2013-11-27 01:17:00,39.6,39.0,29.75,North,355,6.0,13.0,96,0.03,,,0.03,weatherlink.com 1.10,2013-11-27 06:17:00,
2013-11-27 01:32:00,39.3,38.0,29.74,North,5,4.0,16.0,95,0.03,,,0.03,weatherlink.com 1.10,2013-11-27 06:32:00,
2013-11-27 01:47:00,38.9,38.0,29.73,North,5,6.0,22.0,96,0.03,,,0.04,weatherlink.com 1.10,2013-11-27 06:47:00,
2013-11-27 02:03:00,38.4,37.0,29.73,North,5,9.0,18.0,96,0.03,,,0.04,weatherlink.com 1.10,2013-11-27 07:03:00,
2013-11-27 02:18:00,37.3,36.0,29.73,NNE,15,8.0,19.0,95,0.02,,,0.05,weatherlink.com 1.10,2013-11-27 07:18:00,
2013-11-27 02:33:00,35.9,35.0,29.72,NNE,28,10.0,20.0,96,0.03,,,0.06,weatherlink.com 1.10,2013-11-27 07:33:00,
2013-11-27 02:48:00,35.4,34.0,29.73,NNE,13,7.0,19.0,96,0.02,,,0.06,weatherlink.com 1.10,2013-11-27 07:48:00,
2013-11-27 03:03:00,34.8,34.0,29.71,NNW,345,10.0,19.0,95,0.02,,,0.06,weatherlink.com 1.10,2013-11-27 08:03:00,
2013-11-27 03:18:00,34.1,33.0,29.72,North,360,10.0,19.0,96,0.01,,,0.06,weatherlink.com 1.10,2013-11-27 08:18:00,
2013-11-27 03:33:00,33.6,32.0,29.70,WNW,296,8.0,23.0,95,0.00,,,0.06,weatherlink.com 1.10,2013-11-27 08:33:00,
2013-11-27 03:48:00,33.2,32.0,29.69,NW,320,12.0,21.0,95,0.00,,,0.06,weatherlink.com 1.10,2013-11-27 08:48:00,
2013-11-27 04:03:00,32.9,32.0,29.69,North,355,17.0,20.0,95,0.00,,,0.06,weatherlink.com 1.10,2013-11-27 09:03:00,
2013-11-27 04:18:00,32.5,31.0,29.70,North,5,9.0,17.0,95,0.00,,,0.06,weatherlink.com 1.10,2013-11-27 09:18:00,
2013-11-27 04:33:00,32.0,31.0,29.70,NNE,22,16.0,20.0,95,0.00,,,0.06,weatherlink.com 1.10,2013-11-27 09:33:00,
2013-11-27 04:48:00,31.5,30.0,29.71,North,355,6.0,22.0,95,0.00,,,0.06,weatherlink.com 1.10,2013-11-27 09:48:00,
2013-11-27 05:03:00,31.2,30.0,29.71,NNE,13,7.0,17.0,95,0.00,,,0.06,weatherlink.com 1.10,2013-11-27 10:03:00,
2013-11-27 05:18:00,30.6,29.0,29.71,NNE,13,10.0,24.0,95,0.00,,,0.06,weatherlink.com 1.10,2013-11-27 10:18:00,
2013-11-27 05:33:00,30.2,29.0,29.71,NNW,328,12.0,23.0,95,0.00,,,0.06,weatherlink.com 1.10,2013-11-27 10:33:00,
2013-11-27 05:48:00,29.7,28.0,29.71,NNW,327,8.0,25.0,94,0.00,,,0.06,weatherlink.com 1.10,2013-11-27 10:48:00,
2013-11-27 06:03:00,29.0,28.0,29.71,North,349,18.0,25.0,94,0.00,,,0.06,weatherlink.com 1.10,2013-11-27 11:03:00,
2013-11-27 06:18:00,28.6,27.0,29.71,NW,305,19.0,27.0,93,0.00,,,0.06,weatherlink.com 1.10,2013-11-27 11:18:00,
2013-11-27 06:33:00,28.0,26.0,29.70,NNW,342,12.0,21.0,93,0.00,,,0.06,weatherlink.com 1.10,2013-11-27 11:33:00,
2013-11-27 06:48:00,27.7,26.0,29.69,NNE,16,11.0,25.0,93,0.00,,,0.06,weatherlink.com 1.10,2013-11-27 11:48:00,
2013-11-27 07:03:00,27.4,25.0,29.70,North,360,10.0,31.0,92,0.00,,,0.06,weatherlink.com 1.10,2013-11-27 12:03:00,
2013-11-27 07:18:00,27.0,25.0,29.71,North,360,15.0,30.0,92,0.00,,,0.06,weatherlink.com 1.10,2013-11-27 12:18:00,
2013-11-27 07:33:00,26.9,25.0,29.71,North,5,17.0,33.0,91,0.00,,,0.06,weatherlink.com 1.10,2013-11-27 12:33:00,
2013-11-27 07:48:00,26.8,25.0,29.72,North,10,15.0,23.0,91,0.00,,,0.06,weatherlink.com 1.10,2013-11-27 12:48:00,
2013-11-27 08:04:00,26.6,24.0,29.72,North,355,13.0,27.0,91,0.00,,,0.06,weatherlink.com 1.10,2013-11-27 13:04:00,
2013-11-27 08:19:00,26.1,24.0,29.72,North,5,15.0,28.0,92,0.00,,,0.06,weatherlink.com 1.10,2013-11-27 13:19:00,
2013-11-27 08:34:00,26.2,24.0,29.73,North,5,12.0,29.0,91,0.00,,,0.06,weatherlink.com 1.10,2013-11-27 13:34:00,
2013-11-27 08:49:00,26.2,24.0,29.73,NW,323,19.0,27.0,91,0.00,,,0.06,weatherlink.com 1.10,2013-11-27 13:49:00,
2013-11-27 09:04:00,26.0,24.0,29.74,NW,325,13.0,30.0,90,0.00,,,0.06,weatherlink.com 1.10,2013-11-27 14:04:00,
2013-11-27 09:19:00,25.4,23.0,29.73,NNW,340,14.0,30.0,91,0.00,,,0.06,weatherlink.com 1.10,2013-11-27 14:19:00,
2013-11-27 09:34:00,25.1,23.0,29.73,NNE,19,12.0,30.0,92,0.00,,,0.06,weatherlink.com 1.10,2013-11-27 14:34:00,
2013-11-27 09:49:00,24.5,23.0,29.73,NNW,328,19.0,31.0,94,0.00,,,0.06,weatherlink.com 1.10,2013-11-27 14:49:00,
2013-11-27 10:04:00,24.5,23.0,29.73,NNE,18,14.0,31.0,94,0.00,,,0.06,weatherlink.com 1.10,2013-11-27 15:04:00,
2013-11-27 10:19:00,24.3,23.0,29.73,NNE,30,21.0,29.0,94,0.00,,,0.06,weatherlink.com 1.10,2013-11-27 15:19:00,
2013-11-27 10:34:00,24.4,23.0,29.72,NNE,22,15.0,34.0,94,0.00,,,0.06,weatherlink.com 1.10,2013-11-27 15:34:00,
2013-11-27 10:49:00,24.4,23.0,29.74,North,355,15.0,32.0,94,0.00,,,0.06,weatherlink.com 1.10,2013-11-27 15:49:00,
2013-11-27 11:04:00,24.2,23.0,29.74,NNE,22,22.0,30.0,94,0.00,,,0.06,weatherlink.com 1.10,2013-11-27 16:04:00,
2013-11-27 11:19:00,24.4,23.0,29.75,NNE,17,12.0,32.0,94,0.00,,,0.06,weatherlink.com 1.10,2013-11-27 16:19:00,
2013-11-27 11:34:00,24.8,23.0,29.75,NE,34,14.0,30.0,94,0.00,,,0.06,weatherlink.com 1.10,2013-11-27 16:34:00,
2013-11-27 11:49:00,25.2,24.0,29.75,North,360,10.0,36.0,93,0.00,,,0.06,weatherlink.com 1.10,2013-11-27 16:49:00,
2013-11-27 12:04:00,25.7,24.0,29.74,NNW,347,20.0,30.0,92,0.00,,,0.06,weatherlink.com 1.10,2013-11-27 17:04:00,
2013-11-27 12:19:00,26.5,24.0,29.75,ENE,66,17.0,31.0,91,0.00,,,0.06,weatherlink.com 1.10,2013-11-27 17:19:00,
2013-11-27 12:34:00,26.5,25.0,29.76,NW,309,17.0,29.0,92,0.00,,,0.06,weatherlink.com 1.10,2013-11-27 17:34:00,
2013-11-27 12:49:00,26.4,24.0,29.76,NE,46,21.0,26.0,91,0.00,,,0.06,weatherlink.com 1.10,2013-11-27 17:49:00,
2013-11-27 13:05:00,26.2,24.0,29.78,North,355,8.0,31.0,90,0.00,,,0.06,weatherlink.com 1.10,2013-11-27 18:05:00,
2013-11-27 13:19:00,25.8,23.0,29.79,WNW,295,19.0,29.0,89,0.00,,,0.06,weatherlink.com 1.10,2013-11-27 18:19:00,
2013-11-27 13:34:00,25.1,23.0,29.80,North,5,9.0,25.0,91,0.00,,,0.06,weatherlink.com 1.10,2013-11-27 18:34:00,
2013-11-27 14:05:00,23.5,21.0,29.84,North,355,9.0,22.0,90,0.00,,,0.06,weatherlink.com 1.10,2013-11-27 19:05:00,
2013-11-27 14:20:00,23.6,21.0,29.86,North,355,5.0,23.0,90,0.00,,,0.06,weatherlink.com 1.10,2013-11-27 19:20:00,
2013-11-27 14:35:00,24.3,21.0,29.87,North,349,6.0,18.0,88,0.00,,,0.06,weatherlink.com 1.10,2013-11-27 19:35:00,
2013-11-27 14:50:00,24.4,21.0,29.88,NNE,15,6.0,24.0,87,0.00,,,0.06,weatherlink.com 1.10,2013-11-27 19:50:00,
2013-11-27 15:05:00,23.6,21.0,29.89,NE,40,5.0,17.0,89,0.00,,,0.06,weatherlink.com 1.10,2013-11-27 20:05:00,
2013-11-27 15:19:00,23.2,20.0,29.91,NNE,13,10.0,29.0,87,0.00,,,0.06,weatherlink.com 1.10,2013-11-27 20:19:00,
2013-11-27 15:34:00,22.4,19.0,29.92,NNE,22,7.0,19.0,87,0.00,,,0.06,weatherlink.com 1.10,2013-11-27 20:34:00,
2013-11-27 15:50:00,21.2,18.0,29.94,NE,49,13.0,23.0,88,0.00,,,0.06,weatherlink.com 1.10,2013-11-27 20:50:00,
2013-11-27 16:05:00,20.9,16.0,29.94,WNW,289,5.0,23.0,82,0.00,,,0.06,weatherlink.com 1.10,2013-11-27 21:05:00,
2013-11-27 16:20:00,20.9,16.0,30.00,WNW,294,8.0,24.0,82,0.00,,,0.06,weatherlink.com 1.10,2013-11-27 21:20:00,
2013-11-27 16:35:00,20.9,17.0,30.03,North,360,5.0,16.0,84,0.00,,,0.06,weatherlink.com 1.10,2013-11-27 21:35:00,
2013-11-27 16:50:00,20.3,17.0,30.04,North,355,4.0,16.0,87,0.00,,,0.06,weatherlink.com 1.10,2013-11-27 21:50:00,
2013-11-27 17:05:00,20.2,17.0,30.05,NW,311,4.0,16.0,87,0.00,,,0.06,weatherlink.com 1.10,2013-11-27 22:05:00,
2013-11-27 17:20:00,20.2,16.0,30.05,North,355,9.0,21.0,83,0.00,,,0.06,weatherlink.com 1.10,2013-11-27 22:20:00,
2013-11-27 17:35:00,20.1,16.0,30.06,NE,49,2.0,28.0,84,0.00,,,0.06,weatherlink.com 1.10,2013-11-27 22:35:00,
2013-11-27 17:50:00,20.0,17.0,30.07,West,271,3.0,14.0,87,0.00,,,0.06,weatherlink.com 1.10,2013-11-27 22:50:00,
2013-11-27 18:05:00,19.8,17.0,30.07,SSW,202,4.0,26.0,88,0.00,,,0.06,weatherlink.com 1.10,2013-11-27 23:05:00,
2013-11-27 18:20:00,19.6,17.0,30.07,WNW,302,6.0,27.0,90,0.00,,,0.06,weatherlink.com 1.10,2013-11-27 23:20:00,
2013-11-27 18:35:00,19.5,17.0,30.08,NE,34,8.0,19.0,88,0.00,,,0.06,weatherlink.com 1.10,2013-11-27 23:35:00,
2013-11-27 18:50:00,19.4,16.0,30.09,North,355,5.0,22.0,87,0.00,,,0.06,weatherlink.com 1.10,2013-11-27 23:50:00,
2013-11-27 19:06:00,19.3,16.0,30.10,North,355,6.0,22.0,88,0.00,,,0.06,weatherlink.com 1.10,2013-11-28 00:06:00,
2013-11-27 19:21:00,19.1,16.0,30.10,NW,323,6.0,27.0,87,0.00,,,0.06,weatherlink.com 1.10,2013-11-28 00:21:00,
2013-11-27 19:36:00,19.1,15.0,30.11,North,360,19.0,29.0,84,0.00,,,0.06,weatherlink.com 1.10,2013-11-28 00:36:00,
2013-11-27 19:51:00,18.8,15.0,30.11,NNW,336,9.0,29.0,83,0.00,,,0.06,weatherlink.com 1.10,2013-11-28 00:51:00,
2013-11-27 20:06:00,18.4,14.0,30.10,NNE,16,26.0,35.0,83,0.00,,,0.06,weatherlink.com 1.10,2013-11-28 01:06:00,
2013-11-27 20:20:00,18.4,14.0,30.11,North,355,12.0,26.0,84,0.00,,,0.06,weatherlink.com 1.10,2013-11-28 01:20:00,
2013-11-27 20:35:00,18.1,14.0,30.12,NNE,22,13.0,25.0,84,0.00,,,0.06,weatherlink.com 1.10,2013-11-28 01:35:00,
2013-11-27 20:50:00,17.9,13.0,30.13,North,355,9.0,28.0,82,0.00,,,0.06,weatherlink.com 1.10,2013-11-28 01:50:00,
2013-11-27 21:06:00,17.6,13.0,30.13,North,5,11.0,23.0,81,0.00,,,0.06,weatherlink.com 1.10,2013-11-28 02:06:00,
2013-11-27 21:21:00,17.4,13.0,30.11,NNW,327,7.0,36.0,81,0.00,,,0.06,weatherlink.com 1.10,2013-11-28 02:21:00,
2013-11-27 21:36:00,17.3,13.0,30.12,NNW,333,15.0,27.0,82,0.00,,,0.06,weatherlink.com 1.10,2013-11-28 02:36:00,
2013-11-27 21:51:00,17.2,13.0,30.12,NNW,344,9.0,25.0,82,0.00,,,0.06,weatherlink.com 1.10,2013-11-28 02:51:00,
2013-11-27 22:05:00,17.2,13.0,30.14,NNW,331,13.0,32.0,82,0.00,,,0.06,weatherlink.com 1.10,2013-11-28 03:05:00,
2013-11-27 22:21:00,17.1,13.0,30.16,North,350,10.0,25.0,83,0.00,,,0.06,weatherlink.com 1.10,2013-11-28 03:21:00,
2013-11-27 22:36:00,16.9,12.0,30.16,NW,323,11.0,26.0,81,0.00,,,0.06,weatherlink.com 1.10,2013-11-28 03:36:00,
2013-11-27 22:51:00,16.8,12.0,30.21,NNW,331,8.0,31.0,81,0.00,,,0.06,weatherlink.com 1.10,2013-11-28 03:51:00,
2013-11-27 23:06:00,16.9,12.0,30.22,NW,311,5.0,28.0,82,0.00,,,0.06,weatherlink.com 1.10,2013-11-28 04:06:00,
2013-11-27 23:21:00,16.8,13.0,30.24,North,355,4.0,25.0,83,0.00,,,0.06,weatherlink.com 1.10,2013-11-28 04:21:00,
2013-11-27 23:36:00,16.8,13.0,30.24,NW,322,6.0,20.0,83,0.00,,,0.06,weatherlink.com 1.10,2013-11-28 04:36:00,
2013-11-27 23:51:00,16.7,12.0,30.27,WNW,298,10.0,26.0,83,0.00,,,0.06,weatherlink.com 1.10,2013-11-28 04:51:00,